Location: Newark
(44.3248°N, 23.7839°E)
Time: 23:12:20
(UTC+00:00)

PCSat - Pass Details

Date: 18 April 2024
Orbit: 783 x 792 km, 67.1° (Epoch: 21 May)

Event Time Altitude Azimuth Distance (km) Brightness Sun altitude
Rises 01:21:48 0° 336° (NNW) 3,299 13.0 -21.7°
Reaches altitude 10° 01:25:14 10° 358° (N) 2,367 12.5 -21.2°
Maximum altitude 01:28:31 16° 35° (NE) 1,973 12.6 -20.8°
Drops below altitude 10° 01:31:49 10° 73° (ENE) 2,362 13.0 -20.3°
Sets 01:35:12 0° 95° (E) 3,288 13.5 -19.8°
